THOR ABLESTAR DEB, 128

Orbit data source: Space-Track

THOR ABLESTAR DEB, 128 is space debris in LEO originally from a launch on Thu, 29 Jun 1961 UTC launched from the Air Force Eastern Test Range (AFETR). Debris objects in space refer to the collection of defunct objects orbiting the Earth. Examples of debris include non-operational satellites, rocket bodies, and fragments generated from explosions, collisions, or faulty payload assembly.

Loading next visibility...
THOR ABLESTAR DEB details
Identifier
128, 1961-015N
Orbit
LEO
Last TLE update7 hours ago
Origin
Flag of USUSAF SSD (US)
ManufacturerUnknown
MissionSpacecraft
Bus & MotorUnknown
MassUnknown
Launch date (UTC)
1961-06-29 (64 years ago)
Launch vehicleUnknown
Launch site
Air Force Eastern Test Range (AFETR)
Object type
Payload
Rocket body
Debris
Shape & HBRUnknown
Radar Cross SectionMedium (>0.1 m² and <1 m²)

Expand to show TLE details & history

TLE from 7 hours ago
0 THOR ABLESTAR DEB
1   128U 61015N   25015.11035070  .00000198  00000-0  17503-3 0  9991
2   128  66.6752  35.3202 0099137 311.2241  48.0328 14.01809987242878
Epoch: 2025-01-15T02:38Z
Definitive object data (Epoch: 2025-01-15T02:38:54.3Z)
Latitude-0.00004°
Longitude-119.21346°
Altitude841.839 km
Speed7.457 km/s
True Right ascension02h 21m 16s
True Declination0° 00' 00"
Sunlit
Object was in daylight at TLE epoch
Visualization TLE readout
Latitude13.51383°
Longitude-114.01718°
Altitude856.421 km
Speed7.442 km/s
Apparent Right ascension00h 55m 01s
Apparent Declination-13° 25' 02"
Sunlit
Object is in daylight
Visualization observer readout
Local Sidereal Time10:13:53
Azimuth295.362° NW
Elevation-45.889°
Doppler factor1
Orbital elements
Apogee altitude957.947 km
Perigee altitude813.92 km
Semi-major axis7,264.07 km
Eccentricity0.0099137
Inclination66.6752°
RAAN35.3202°
Arg. of periapsis311.2241°
True anomaly48.88449°
Mean anomaly48.0328°
Eccentric anomaly48.45794°
Mean motion3.50569 °/min
BSTAR0.00017503
Orbital period102.69 mins
Loading maneuver chart data...

THOR ABLESTAR DEB Visibility forecast

Observer location: undefined°, undefined

Span
Click to sort rows by Start time (UTC) header in descending order
Start Az.
Max El. time (UTC)
Max El. Az.
Max El.
End time (UTC)
End Az.
6 mins2025-01-15 10:00:59.612Z7.014° NNE2025-01-15 10:03:59.612Z36.462° NE13.953°2025-01-15 10:06:59.612Z66.157° ENE
11 mins2025-01-15 11:45:59.612Z338.934° N2025-01-15 11:50:59.612Z60.651° ENE42.062°2025-01-15 11:56:59.612Z139.51° SSE
7 mins2025-01-15 13:32:59.612Z289.963° WNW2025-01-15 13:35:59.612Z255.379° W19.819°2025-01-15 13:39:59.612Z212.212° SW
10 mins2025-01-16 02:44:59.612Z205.259° SW2025-01-16 02:49:59.612Z54.828° ENE44.623°2025-01-16 02:54:59.612Z30.297° NE
6 mins2025-01-16 04:33:59.612Z292.325° WNW2025-01-16 04:35:59.612Z316.594° NNW17.813°2025-01-16 04:39:59.612Z359.726° N
|